Find Starlink 6319

NORAD ID: 56532 Int'l Des: 2023-065 Owner: SPXS Country: US Constellation: starlink operational
LEOCIRCULAR

Current View

Loading 3D Globe...

About Starlink 6319

Description loading...

Upcoming Passes

Passes for default location (London). Set your location on the main map for personalized predictions.

Altitude History

Loading altitude history...

Two-Line Element Set

1 56532U 23065AF 26149.96159093 -.00002058 00000-0 -65251-4 0 9991
2 56532 43.0029 99.2519 0000902 271.4144 88.6604 15.27589003169198
Epoch: May 29, 2026 • Age: 18 hours

Current Status

Altitude 487.5 km
Velocity 7.62 km/s
Sub-Earth Point -21.04°S, 152.03°E
Launch Date May 14, 2023
Age 3 years
Type internet

Technical Details

Classification Payload
Mass 305.00 kg
Dry Mass 290.00 kg
Total Mass 305.00 kg
Length 0.20 m
Diameter 2.80 m
Span 9.00 m
Shape Box + pan
Manufacturer SPXS
Bus Type Starlink
Phase Status In Orbit
Owner/State SPXS/US

Most Searched